Regional Weather Roundup
Issued by NWS

Home | Current Version | Previous Version | Text Only | Print | Product List | Glossary Off
Versions: 1 2 3 4 5 6 7 8 9 10 11 12 13 14 15 16 17 18 19 20 21 22 23 24 25 26 27 28 29 30 31 32 33 34 35 36 37 38 39 40 41 42 43 44 45 46 47 48 49 50

000
ASUS45 KTFX 300319
RWRMT
MONTANA HOURLY WEATHER ROUNDUP
NATIONAL WEATHER SERVICE GREAT FALLS MT
819 PM MST THU JAN 29 2015

NOTE: "FAIR" INDICATES FEW OR NO CLOUDS BELOW 12000 FEET WITH NO
SIGNIFICANT WEATHER AND/OR OBSTRUCTIONS TO VISIBILITY.

* THESE STATIONS ARE NOT UNDER NWS QUALITY CONTROL. THEY DO NOT
   REPORT WEATHER SUCH AS PRECIPITATION OR FOG.

MTZ001>007-043-300400-
WEST OF THE DIVIDE
CITY           SKY/WX    TMP DP  RH WIND       PRES   REMARKS
KALISPELL      CLEAR     18  16  92 CALM      30.36S
MISSOULA       MOCLDY    27  23  85 CALM      30.36R
BUTTE          MOCLDY    27  21  78 SE5       30.30S WCI  21
MULLAN PASS    CLEAR     30  21  69 W5        30.29S WCI  25
* ANACONDA     MOCLDY    30  25  82 N/A        N/A
* ESSEX        N/A       24  22  92 N/A        N/A
* EUREKA APT   CLEAR     25  21  85 CALM      30.40R
* HAMILTON APT MOCLDY    28  23  81 S5        30.34S WCI  22
* LIBBY APT    CLEAR     27  27 100 CALM      30.39F VSB M1/4
* LINCOLN      N/A       28  19  69 S2         N/A
* LOOKOUT PASS N/A       30  25  82 N2         N/A
* POLSON       N/A       26  25  96 N/A        N/A
* RONAN APT    PTCLDY    27  25  92 N/A        N/A
* SEELEY LAKE  N/A       22  18  85 N2         N/A
* THOMP F APT  CLEAR     27  20  75 NE5        N/A   WCI  21
$$

MTZ008-052>055-300400-
SOUTHWEST MONTANA
CITY           SKY/WX    TMP DP  RH WIND       PRES   REMARKS
BOZEMAN        MOCLDY    27  21  78 S6        30.31R WCI  20
DILLON         MOCLDY    30  23  75 S8        30.30S WCI  22
* W YELLOWSTON MOCLDY    22  20  92 N/A        N/A
* THREE FORKS  CLOUDY    28  28 100 N/A        N/A
* BOULDER HILL N/A       33  19  56 S8         N/A   WCI  26
* MONIDA PASS  N/A       13  13 100 W1         N/A
* RAYNOLDS PAS N/A       24  10  55 S7         N/A   WCI  16
* WHITEHALL    N/A       32  23  69 NW6        N/A   WCI  26
* WISE RIVER   N/A       25  18  75 W6         N/A   WCI  18
$$

MTZ009>010-012-014-046-048-049-054-300400-
EAST SLOPES AND CENTRAL MONTANA
CITY           SKY/WX    TMP DP  RH WIND       PRES   REMARKS
CUT BANK       PTCLDY    32  16  52 W6        30.19R WCI  26
GREAT FALLS    CLOUDY    39  19  45 S16       30.19F WCI  30
HELENA         MOCLDY    34  27  76 S3        30.30R
MALMSTROM AFB  CLOUDY    37  21  52 SW15      30.20F WCI  28
* CONRAD       CLEAR     30  25  82 CALM       N/A
* DEARBORN     N/A       43  20  40 SE4        N/A
* EAST GLACIER N/A       36   9  32 W17        N/A   WCI  26
* MONARCH      N/A       36   5  27 SW5G11     N/A   WCI  32
* PENDROY      N/A       37   7  28 NW13       N/A   WCI  29
* ROGERS PASS  N/A       33  17  52 E4G12      N/A
* SWEET GRASS  N/A       34  16  48 NW6        N/A   WCI  29
* WHITE SULPH  N/A       35  20  54 S4G12      N/A
$$

MTZ011-013-016-021-035-040-045-047-050-051-300400-
NORTH CENTRAL MONTANA
CITY           SKY/WX    TMP DP  RH WIND       PRES   REMARKS
HAVRE          PTCLDY    27  25  92 SE5       30.20R WCI  21
LEWISTOWN      MOCLDY    30  21  69 S6        30.21S WCI  24
* N BAR RANCH  CLEAR     30  21  69 CALM      30.22R
* CHINOOK      PTCLDY    27  25  92 CALM      30.20S
* CHESTER      N/A       32  29  89 NE2        N/A
* DENTON       N/A       36  25  64 NW6        N/A   WCI  31
* GEYSER       N/A       37  17  44 W6         N/A   WCI  32
* JUDITH GAP   N/A       32  22  67 SE10       N/A   WCI  24
* LOMA         N/A       38  31  76 NE4        N/A
$$

MTZ017>020-022>027-061-062-300400-
NORTHEAST MONTANA
CITY           SKY/WX    TMP DP  RH WIND       PRES   REMARKS
GLASGOW        CLEAR     30  25  82 SE12      30.22F WCI  20
GLENDIVE       CLEAR     28  19  69 S5        30.28F WCI  22
JORDAN         PTCLDY    34  25  70 CALM      30.22F
SIDNEY         CLEAR     25  19  78 CALM      30.31F
WOLF POINT     CLEAR     28  23  81 NE9       30.26F WCI  19
* BEAVER HILL  N/A       33  17  52 SE19       N/A   WCI  22
* CIRCLE       N/A       34  27  76 W2G8       N/A
* LINDSAY DVD  N/A       27  21  78 S4         N/A
* NAVAJO       N/A       23  20  88 S7         N/A   WCI  15
* PLENTYWOOD A CLEAR     23  19  85 SE10      30.28F WCI  13
* POPLAR APT   CLEAR     28  25  89 N/A       30.27F
* SACO         N/A       24  22  92 NE1        N/A
$$

MTZ028>042-056>058-300400-
SOUTHCENTRAL AND SOUTHEAST MONTANA
CITY           SKY/WX    TMP DP  RH WIND       PRES   REMARKS
BAKER          CLEAR     28  19  69 SE3       30.31F
BILLINGS       PTCLDY    39  28  65 SW17      30.24F WCI  30
LIVINGSTON     MOCLDY    34  21  59 W12       30.26S WCI  25
MILES CITY     CLEAR     36  23  59 SE12      30.26F WCI  28
* BIG TIMBER A MOCLDY    39  21  48 SW13      30.24F WCI  31
* FORSYTH APT  CLEAR     37  23  57 CALM      30.25F
* LAUREL APT   PTCLDY    39  23  53 SW7        N/A   WCI  34
* ROUNDUP APT  PTCLDY    39  27  62 SW10       N/A   WCI  32
* ALZADA       N/A       30  17  58 E8         N/A   WCI  22
* HYSHAM       N/A       41  18  39 W3         N/A
* LAME DEER    N/A       37  21  52 S8         N/A   WCI  31
* REED POINT   N/A       31  26  82 N/A        N/A
* ROSCOE HILL  N/A       37  14  39 SW3        N/A
$$

REGIONAL REPORTS...DAKOTAS
CITY           SKY/WX    TMP DP  RH WIND       PRES   REMARKS
WILLISTON      CLEAR     27  19  72 SE5       30.32F WCI  21
DICKINSON      PTCLDY    25  19  78 SE13      30.32F WCI  13
BEACH          CLEAR     28  23  81 S9        30.31F WCI  19
CROSBY         CLEAR     19  19 100 SE3       30.33F
TIOGA          CLEAR     19  19 100 SE7       30.36F WCI  10
WATFORD CITY   CLEAR     25  19  78 SE9       30.31F WCI  16
BISMARCK       CLEAR     18  16  92 SE8       30.47S WCI   8
GRAND FORKS    PTCLDY     7   0  73 N3        30.58S
FARGO          PTCLDY     9   1  70 N7        30.58R WCI  -2
BUFFALO SD     CLEAR     28  10  47 SE8       30.28F WCI  20
RAPID CITY     CLEAR     28  10  47 CALM      30.37F
$$

REGIONAL REPORTS...WYOMING/IDAHO/WASHINGTON
CITY           SKY/WX    TMP DP  RH WIND       PRES   REMARKS
GILLETTE       CLEAR     28  23  81 S7        30.29S WCI  21
SHERIDAN       PTCLDY    25  19  78 CALM      30.25F
CODY           PTCLDY    28  27  96 CALM      30.29S
YELLOWSTONE LA PTCLDY     9   5  84 CALM      30.36S
SALMON         PTCLDY    21  16  81 CALM      30.39S
MULLAN PASS    CLEAR     30  21  69 W5        30.29S WCI  25
SAND POINT     FOG       30  30 100 CALM      30.39R
SPOKANE        PTCLDY    30  28  92 W3        30.36S
$$

REGIONAL REPORTS...ALBERTA
CITY           SKY/WX    TMP DP  RH WIND       PRES   REMARKS
CALGARY        N/A       43   5  21 N6        30.15S
LETHBRIDGE     FAIR      37  18  46 W14G21    30.17S WCI  28
MEDICINE HAT   N/A       28  27  96 SW6       30.17R WCI  21
EDMONTON       FOG       18  16  92 S6        30.15F WCI  10
WATERTON GATE  N/A       37  14  39 SW21G30    N/A   WCI  26
CARDSTON       N/A       41  14  33 W14G21     N/A
MILK RIVER     N/A       30  21  69 NW8        N/A   WCI  22
$$

REGIONAL REPORTS...SASKATCHEWAN
CITY           SKY/WX    TMP DP  RH WIND       PRES   REMARKS
SWIFT CURRENT  CLEAR     28  27  96 SW13      30.15F WCI  17
REGINA         MOCLDY    16  14  92 SE14      30.28F WCI   2
VAL MARIE      N/A       27  27 100 S2         N/A
ASSINIBOIA     N/A       23  19  85 SE5        N/A   WCI  16
CORONACH       N/A       25  23  92 SE7        N/A   WCI  17

$$



USA.gov is the U.S. government's official web portal to all federal, state and local government web resources and services.